Location: Warszawa
(52.2322°N, 21.0083°E)
Time: 13:47:39
(UTC+02:00)

ISS - Pass Details

Date: 26 March 2019
Orbit: 408 x 410 km, 51.6° (Epoch: 24 April)

Event Time Altitude Azimuth Distance (km) Brightness Sun altitude
Rises 19:24:02 0° 249° (WSW) 2,333 0.8 -13.4°
Reaches altitude 10° 19:26:08 10° 245° (WSW) 1,473 -0.4 -13.7°
Maximum altitude 19:29:23 61° 165° (SSE) 468 -3.8 -14.2°
Enters shadow 19:30:49 30° 95° (E) 770 -3.0 -14.4°
